Total_Precipitation_Accumulation
0.11 0.12 0.11 0.13 0.10 0.05 0.01 0.00 0.00 0.00 0.00 0.00 0.01 0.00 0.00 0.00 0.01 0.04 0.07 0.05 0.05 0.09 0.17 0.32 0.41 0.43 0.52 0.54 0.48 0.43 0.43 0.44 0.47 0.50 0.51 0.53 0.51 0.50 0.52 0.52 0.52 0.58 0.65 0.68 0.70 0.64 0.60 0.58 0.59
0.12 0.15 0.17 0.17 0.08 0.02 0.01 0.00 0.00 0.00 0.00 0.00 0.01 0.01 0.00 0.01 0.01 0.03 0.05 0.05 0.05 0.10 0.16 0.21 0.36 0.41 0.52 0.55 0.50 0.47 0.45 0.45 0.49 0.52 0.52 0.53 0.57 0.56 0.52 0.50 0.56 0.61 0.70 0.76 0.69 0.62 0.61 0.61 0.58
0.19 0.22 0.20 0.16 0.06 0.01 0.00 0.00 0.00 0.00 0.00 0.00 0.01 0.01 0.01 0.01 0.01 0.02 0.03 0.04 0.05 0.09 0.14 0.23 0.37 0.43 0.52 0.57 0.59 0.57 0.54 0.53 0.54 0.55 0.51 0.54 0.57 0.58 0.55 0.54 0.59 0.62 0.64 0.66 0.64 0.62 0.64 0.61 0.54
0.28 0.34 0.27 0.15 0.03 0.00 0.00 0.00 0.00 0.00 0.00 0.00 0.00 0.01 0.01 0.01 0.01 0.02 0.03 0.03 0.04 0.09 0.14 0.25 0.41 0.51 0.57 0.59 0.64 0.64 0.62 0.63 0.64 0.61 0.59 0.62 0.64 0.64 0.59 0.56 0.56 0.57 0.60 0.61 0.57 0.57 0.61 0.61 0.53
0.38 0.41 0.29 0.12 0.02 0.00 0.00 0.00 0.00 0.00 0.00 0.00 0.01 0.01 0.02 0.01 0.01 0.02 0.04 0.05 0.05 0.09 0.16 0.26 0.46 0.59 0.60 0.61 0.66 0.70 0.73 0.77 0.78 0.76 0.74 0.73 0.73 0.72 0.71 0.68 0.59 0.53 0.53 0.53 0.54 0.54 0.55 0.59 0.55
0.48 0.46 0.26 0.08 0.02 0.01 0.00 0.01 0.01 0.01 0.01 0.01 0.01 0.02 0.03 0.04 0.04 0.05 0.08 0.10 0.11 0.13 0.20 0.32 0.58 0.68 0.64 0.65 0.72 0.77 0.78 0.81 0.83 0.84 0.83 0.80 0.76 0.75 0.80 0.76 0.66 0.55 0.45 0.43 0.43 0.44 0.50 0.52 0.50
0.46 0.40 0.20 0.07 0.03 0.01 0.01 0.01 0.01 0.01 0.01 0.01 0.01 0.02 0.04 0.07 0.08 0.07 0.11 0.16 0.21 0.23 0.27 0.38 0.56 0.71 0.75 0.75 0.75 0.76 0.79 0.81 0.81 0.84 0.85 0.82 0.76 0.75 0.74 0.72 0.65 0.56 0.49 0.44 0.40 0.38 0.41 0.42 0.45
0.48 0.48 0.26 0.11 0.06 0.03 0.02 0.02 0.02 0.02 0.01 0.01 0.02 0.03 0.03 0.06 0.09 0.13 0.18 0.24 0.29 0.34 0.39 0.48 0.61 0.70 0.74 0.78 0.77 0.73 0.74 0.75 0.77 0.78 0.80 0.74 0.70 0.69 0.68 0.61 0.56 0.52 0.52 0.50 0.43 0.39 0.39 0.34 0.32
0.64 0.66 0.31 0.11 0.07 0.05 0.03 0.03 0.03 0.03 0.02 0.01 0.01 0.02 0.04 0.06 0.13 0.22 0.31 0.41 0.46 0.49 0.56 0.63 0.73 0.81 0.86 0.84 0.78 0.79 0.78 0.79 0.77 0.73 0.72 0.72 0.70 0.68 0.65 0.57 0.52 0.51 0.51 0.48 0.44 0.40 0.39 0.33 0.27
0.77 0.67 0.28 0.10 0.07 0.07 0.05 0.05 0.05 0.06 0.05 0.04 0.04 0.05 0.08 0.13 0.22 0.26 0.27 0.36 0.43 0.47 0.55 0.63 0.79 0.86 0.93 0.90 0.89 0.92 0.83 0.79 0.75 0.67 0.62 0.66 0.68 0.68 0.61 0.59 0.54 0.53 0.53 0.51 0.49 0.45 0.39 0.32 0.26
0.60 0.46 0.21 0.11 0.09 0.11 0.11 0.09 0.07 0.09 0.08 0.05 0.05 0.07 0.11 0.19 0.26 0.29 0.28 0.32 0.39 0.47 0.56 0.66 0.78 0.90 0.97 0.98 0.96 0.95 0.88 0.81 0.77 0.72 0.71 0.77 0.78 0.72 0.70 0.67 0.61 0.60 0.58 0.62 0.62 0.61 0.50 0.44 0.42
0.47 0.31 0.20 0.15 0.12 0.14 0.16 0.14 0.12 0.11 0.07 0.04 0.05 0.08 0.14 0.20 0.23 0.27 0.31 0.38 0.48 0.59 0.65 0.75 0.88 1.03 1.07 1.06 1.00 0.95 0.86 0.80 0.78 0.74 0.75 0.81 0.84 0.76 0.72 0.69 0.62 0.60 0.61 0.64 0.68 0.67 0.61 0.56 0.49
0.44 0.28 0.21 0.20 0.18 0.17 0.18 0.16 0.14 0.12 0.07 0.08 0.11 0.12 0.16 0.19 0.22 0.30 0.38 0.44 0.52 0.60 0.68 0.82 0.95 1.09 1.16 1.21 1.16 1.02 0.90 0.78 0.76 0.78 0.72 0.71 0.74 0.73 0.67 0.59 0.52 0.50 0.52 0.54 0.57 0.56 0.56 0.56 0.52
0.42 0.32 0.25 0.24 0.25 0.21 0.20 0.17 0.15 0.12 0.10 0.15 0.18 0.17 0.17 0.19 0.21 0.33 0.43 0.46 0.50 0.58 0.68 0.80 0.97 1.15 1.26 1.25 1.27 1.21 1.11 0.96 0.88 0.84 0.78 0.72 0.70 0.68 0.63 0.56 0.46 0.41 0.40 0.39 0.40 0.39 0.40 0.42 0.45
0.46 0.46 0.41 0.32 0.29 0.26 0.27 0.23 0.13 0.09 0.14 0.21 0.23 0.25 0.25 0.24 0.25 0.30 0.40 0.47 0.47 0.56 0.72 0.83 1.00 1.20 1.35 1.37 1.32 1.32 1.32 1.22 1.09 0.97 0.88 0.81 0.75 0.71 0.69 0.67 0.62 0.56 0.50 0.46 0.43 0.38 0.35 0.34 0.36
0.71 0.76 0.67 0.41 0.33 0.31 0.42 0.30 0.10 0.11 0.19 0.23 0.26 0.29 0.29 0.29 0.28 0.30 0.41 0.51 0.56 0.64 0.74 0.87 0.99 1.16 1.29 1.44 1.49 1.41 1.41 1.34 1.21 1.07 0.99 0.90 0.81 0.74 0.74 0.72 0.65 0.64 0.65 0.61 0.57 0.51 0.45 0.39 0.35
1.09 0.96 0.63 0.40 0.36 0.39 0.44 0.29 0.12 0.15 0.22 0.25 0.27 0.28 0.31 0.35 0.36 0.36 0.41 0.50 0.62 0.68 0.74 0.83 0.92 1.07 1.22 1.40 1.59 1.64 1.59 1.47 1.31 1.15 1.05 1.00 0.91 0.78 0.72 0.72 0.66 0.62 0.63 0.63 0.64 0.62 0.58 0.52 0.46
0.95 0.68 0.52 0.39 0.34 0.40 0.40 0.27 0.17 0.20 0.25 0.26 0.25 0.29 0.34 0.36 0.32 0.36 0.43 0.54 0.67 0.75 0.80 0.88 0.97 1.07 1.27 1.48 1.61 1.71 1.71 1.62 1.50 1.35 1.19 1.13 1.07 0.94 0.81 0.76 0.73 0.71 0.68 0.64 0.60 0.60 0.61 0.59 0.54
0.66 0.54 0.49 0.37 0.30 0.39 0.36 0.25 0.18 0.20 0.25 0.25 0.25 0.28 0.32 0.34 0.35 0.40 0.50 0.64 0.74 0.79 0.84 0.91 0.95 1.01 1.19 1.36 1.43 1.43 1.52 1.50 1.46 1.44 1.37 1.28 1.23 1.13 1.00 0.90 0.83 0.83 0.77 0.70 0.62 0.57 0.58 0.57 0.55
0.75 0.70 0.52 0.40 0.34 0.41 0.36 0.24 0.17 0.17 0.22 0.23 0.26 0.28 0.30 0.33 0.38 0.41 0.55 0.70 0.74 0.74 0.82 0.90 0.89 0.92 0.98 1.05 1.21 1.30 1.32 1.36 1.38 1.37 1.41 1.41 1.32 1.20 1.10 1.01 0.91 0.82 0.80 0.76 0.69 0.61 0.57 0.53 0.48
0.80 0.70 0.54 0.49 0.48 0.52 0.49 0.42 0.23 0.18 0.19 0.21 0.26 0.26 0.28 0.30 0.31 0.33 0.46 0.69 0.76 0.75 0.81 0.87 0.89 0.89 0.97 1.05 1.21 1.33 1.46 1.48 1.41 1.33 1.31 1.35 1.33 1.26 1.16 1.07 1.01 0.95 0.87 0.80 0.77 0.71 0.65 0.60 0.53
0.81 0.53 0.50 0.53 0.74 0.90 0.70 0.76 0.33 0.20 0.21 0.21 0.24 0.26 0.26 0.29 0.30 0.31 0.39 0.61 0.75 0.74 0.83 0.93 0.98 1.01 1.01 1.09 1.17 1.15 1.16 1.22 1.17 1.16 1.15 1.25 1.35 1.30 1.21 1.20 1.17 1.05 0.95 0.84 0.77 0.76 0.74 0.74 0.71
0.60 0.49 0.58 0.66 0.85 0.99 0.72 0.74 0.38 0.20 0.25 0.25 0.25 0.27 0.26 0.28 0.29 0.28 0.34 0.53 0.72 0.79 0.87 0.99 1.02 1.09 1.12 1.10 1.15 1.14 1.07 1.04 1.11 1.22 1.27 1.24 1.28 1.35 1.26 1.17 1.16 1.14 1.04 0.96 0.89 0.80 0.80 0.80 0.80
0.57 0.74 0.98 1.07 1.41 1.56 0.69 0.57 0.40 0.28 0.30 0.28 0.25 0.27 0.30 0.30 0.31 0.31 0.35 0.50 0.63 0.73 0.86 0.94 1.05 1.09 1.20 1.17 1.15 1.11 1.03 0.97 1.02 1.10 1.25 1.32 1.30 1.32 1.34 1.24 1.18 1.11 1.03 1.00 1.01 0.95 0.86 0.81 0.80
0.97 1.42 2.22 2.51 2.47 1.49 0.40 0.37 0.40 0.28 0.26 0.28 0.25 0.24 0.30 0.33 0.35 0.35 0.34 0.43 0.52 0.62 0.77 0.86 0.95 1.11 1.17 1.20 1.14 1.09 1.03 0.97 0.96 1.00 1.08 1.15 1.22 1.27 1.28 1.26 1.20 1.12 1.02 0.92 0.94 0.99 0.96 0.90 0.89
1.06 1.18 1.57 1.70 1.29 0.60 0.30 0.33 0.31 0.22 0.17 0.18 0.17 0.18 0.21 0.27 0.35 0.37 0.33 0.37 0.44 0.53 0.64 0.77 0.86 1.03 1.14 1.15 1.16 1.11 1.06 1.00 0.96 0.98 0.99 1.05 1.02 1.07 1.17 1.26 1.27 1.12 1.00 0.94 0.91 0.94 0.95 0.97 0.97
0.98 0.97 0.78 0.99 0.73 0.47 0.39 0.30 0.23 0.15 0.12 0.13 0.17 0.18 0.19 0.21 0.30 0.36 0.33 0.38 0.43 0.52 0.59 0.69 0.81 0.95 1.08 1.16 1.19 1.14 1.09 1.06 0.98 0.98 0.99 1.05 1.02 0.95 1.00 1.12 1.25 1.29 1.20 1.09 1.02 0.99 0.94 0.96 1.00
0.85 0.91 1.04 1.39 1.16 0.68 0.36 0.26 0.28 0.22 0.16 0.15 0.19 0.22 0.22 0.22 0.27 0.31 0.30 0.36 0.45 0.53 0.57 0.64 0.77 0.87 0.98 1.08 1.15 1.17 1.17 1.16 1.09 1.04 0.99 0.96 1.00 1.01 0.97 0.98 1.04 1.13 1.21 1.22 1.17 1.12 1.04 1.01 0.99
0.92 1.15 1.37 1.37 1.04 0.84 0.54 0.38 0.34 0.26 0.19 0.17 0.18 0.24 0.25 0.23 0.26 0.28 0.28 0.34 0.43 0.52 0.55 0.59 0.68 0.83 0.94 1.02 1.07 1.13 1.22 1.19 1.17 1.15 1.08 0.98 0.93 1.00 1.02 1.01 1.06 1.10 1.13 1.15 1.22 1.22 1.18 1.17 1.13
0.81 0.99 1.13 1.36 1.06 0.65 0.61 0.46 0.31 0.22 0.18 0.16 0.17 0.21 0.25 0.24 0.25 0.26 0.28 0.34 0.39 0.46 0.52 0.58 0.64 0.71 0.85 0.98 1.04 1.07 1.18 1.24 1.20 1.22 1.19 1.07 0.96 0.96 1.01 1.05 1.08 1.15 1.18 1.16 1.20 1.24 1.24 1.29 1.26